| time (UTC) | temp C | wind direction | speed KPH | gust KPH | rain 1hr cm | rain 24hr cm | rain mn cm | humidity % | barometer mb |
| 20260506110015 | 23 | 177 | 0.0 | 0.0 | 0.00 | 0.00 | 0.00 | 93 | 1008.8 |
| 20260506104533 | 23 | 177 | 0.0 | 0.0 | 0.00 | 0.00 | 0.00 | 93 | 1008.6 |
| 20260506103012 | 23 | 177 | 0.0 | 0.0 | 0.00 | 0.00 | 0.00 | 92 | 1008.6 |
| 20260506101511 | 23 | 177 | 0.0 | 0.0 | 0.00 | 0.00 | 0.00 | 92 | 1008.6 |
| 20260506100009 | 23 | 180 | 0.0 | 0.0 | 0.00 | 0.00 | 0.00 | 91 | 1008.6 |
| 20260506094509 | 24 | 173 | 0.0 | 1.6 | 0.00 | 0.00 | 0.00 | 91 | 1008.2 |
| 20260506093007 | 24 | 149 | 0.0 | 3.2 | 0.00 | 0.00 | 0.00 | 91 | 1008.2 |
| 20260506091506 | 24 | 149 | 0.0 | 3.2 | 0.00 | 0.00 | 0.00 | 91 | 1008.2 |
| 20260506090005 | 24 | 173 | 0.0 | 3.2 | 0.00 | 0.00 | 0.00 | 91 | 1008.1 |
| 20260506084506 | 24 | 177 | 0.0 | 3.2 | 0.00 | 0.00 | 0.00 | 91 | 1007.9 |
| 20260506083006 | 24 | 129 | 0.0 | 0.0 | 0.00 | 0.00 | 0.00 | 91 | 1008.1 |
| 20260506081501 | 24 | 146 | 0.0 | 3.2 | 0.00 | 0.00 | 0.00 | 91 | 1008.2 |
| 20260506080114 | 24 | 146 | 0.0 | 0.0 | 0.00 | 0.00 | 0.00 | 91 | 1008.5 |
| 20260506073056 | 24 | 110 | 0.0 | 0.0 | 0.00 | 0.00 | 0.00 | 90 | 1008.8 |
| 20260506071615 | 24 | 154 | 0.0 | 0.0 | 0.00 | 0.00 | 0.00 | 90 | 1009.2 |
| 20260506061551 | 25 | 173 | 0.0 | 1.6 | 0.00 | 0.00 | 0.00 | 90 | 1009.2 |
| 20260506044550 | 25 | 164 | 0.0 | 1.6 | 0.00 | 0.00 | 0.00 | 87 | 1009.1 |
| 20260506043052 | 25 | 159 | 0.0 | 3.2 | 0.00 | 0.00 | 0.00 | 87 | 1009.1 |
| 20260506041546 | 25 | 159 | 0.0 | 3.2 | 0.00 | 0.00 | 0.00 | 87 | 1009.3 |
| 20260506040049 | 25 | 148 | 0.0 | 0.0 | 0.00 | 0.00 | 0.00 | 87 | 1009.0 |
| 20260506034543 | 25 | 146 | 0.0 | 0.0 | 0.00 | 0.00 | 0.00 | 86 | 1008.9 |
| 20260506033043 | 25 | 159 | 0.0 | 3.2 | 0.00 | 0.00 | 0.00 | 86 | 1008.7 |
| 20260506031541 | 25 | 164 | 0.0 | 0.0 | 0.00 | 0.00 | 0.00 | 86 | 1008.7 |
| 20260506030041 | 25 | 173 | 0.0 | 0.0 | 0.00 | 0.00 | 0.00 | 86 | 1008.5 |
| 20260506024545 | 25 | 173 | 0.0 | 0.0 | 0.00 | 0.00 | 0.00 | 85 | 1008.3 |
| 20260506023040 | 25 | 149 | 0.0 | 0.0 | 0.00 | 0.00 | 0.00 | 85 | 1008.1 |
| 20260506021552 | 25 | 148 | 0.0 | 3.2 | 0.00 | 0.00 | 0.00 | 84 | 1007.8 |
| 20260506020038 | -17 | 173 | 0.0 | 3.2 | 0.00 | 0.00 | 0.00 | 1007.6 | |
| 20260506014534 | -17 | 128 | 0.0 | 1.6 | 0.00 | 0.00 | 0.00 | 1007.4 | |
| 20260506013031 | -17 | 169 | 0.0 | 1.6 | 0.00 | 0.00 | 0.00 | 1007.2 | |
| 20260506011532 | -17 | 164 | 0.0 | 3.2 | 0.00 | 0.00 | 0.00 | 1007.1 | |
| 20260506010043 | -17 | 155 | 0.0 | 3.2 | 0.00 | 0.00 | 0.00 | 1006.9 | |
| 20260506004530 | -17 | 138 | 0.0 | 3.2 | 0.00 | 0.00 | 0.00 | 1006.6 | |
| 20260506003030 | -17 | 159 | 0.0 | 3.2 | 0.00 | 0.00 | 0.00 | 1006.6 | |
| 20260506001528 | -17 | 178 | 0.0 | 0.0 | 0.00 | 0.00 | 0.00 | 1006.6 | |
| 20260506000025 | -17 | 178 | 0.0 | 4.8 | 0.00 | 0.00 | 0.00 | 1006.5 | |
| 20260505234522 | -17 | 133 | 0.0 | 3.2 | 0.00 | 0.00 | 0.00 | 1006.6 | |
| 20260505233017 | -17 | 192 | 0.0 | 0.0 | 0.00 | 0.00 | 0.00 | 1006.5 | |
| 20260505231523 | -17 | 154 | 0.0 | 0.0 | 0.00 | 0.00 | 0.00 | 1006.6 | |
| 20260505230008 | -17 | 181 | 0.0 | 0.0 | 0.00 | 0.00 | 0.00 | 1006.8 | |
| 20260505224504 | -17 | 177 | 0.0 | 0.0 | 0.00 | 0.00 | 0.00 | 1006.6 | |
| 20260505223113 | -17 | 190 | 0.0 | 3.2 | 0.00 | 0.00 | 0.00 | 1006.5 | |
| 20260505221559 | -17 | 173 | 0.0 | 1.6 | 0.00 | 0.00 | 0.00 | 1006.8 | |
| 20260505220051 | -17 | 154 | 0.0 | 4.8 | 0.00 | 0.00 | 0.00 | 1006.7 | |
| 20260505214555 | -17 | 140 | 0.0 | 1.6 | 0.00 | 0.00 | 0.00 | 1007.1 | |
| 20260505213043 | -17 | 131 | 0.0 | 0.0 | 0.00 | 0.00 | 0.00 | 1007.2 | |
| 20260505211545 | -17 | 215 | 0.0 | 0.0 | 0.00 | 0.00 | 0.00 | 1007.5 | |
| 20260505210033 | -17 | 215 | 0.0 | 3.2 | 0.00 | 0.00 | 0.00 | 1007.6 | |
| 20260505204529 | -17 | 174 | 0.0 | 0.0 | 0.00 | 0.00 | 0.00 | 1007.7 | |
| 20260505203030 | -17 | 204 | 0.0 | 1.6 | 0.00 | 0.00 | 0.00 | 1007.8 | |
| 20260505201520 | -17 | 198 | 0.0 | 3.2 | 0.00 | 0.00 | 0.00 | 1008.0 | |
| 20260505200016 | -17 | 35 | 0.0 | 3.2 | 0.00 | 0.00 | 0.00 | 1008.1 | |
| 20260505194512 | 27 | 195 | 0.0 | 3.2 | 0.00 | 0.00 | 0.00 | 81 | 1008.3 |
| 20260505193011 | 27 | 181 | 0.0 | 3.2 | 0.00 | 0.00 | 0.00 | 83 | 1008.5 |
| 20260505191508 | 26 | 140 | 0.0 | 0.0 | 0.00 | 0.00 | 0.00 | 85 | 1008.6 |
| 20260505190013 | 26 | 164 | 0.0 | 0.0 | 0.00 | 0.00 | 0.00 | 85 | 1008.7 |
| 20260505184512 | 26 | 154 | 0.0 | 3.2 | 0.00 | 0.00 | 0.00 | 84 | 1008.8 |
| 20260505183004 | 26 | 159 | 0.0 | 0.0 | 0.00 | 0.00 | 0.00 | 87 | 1009.0 |
| 20260505181503 | 26 | 188 | 0.0 | 0.0 | 0.00 | 0.00 | 0.00 | 87 | 1009.0 |
| 20260505180001 | 25 | 190 | 0.0 | 3.2 | 0.00 | 0.00 | 0.00 | 87 | 1009.2 |
| 20260505174559 | 25 | 199 | 0.0 | 1.6 | 0.00 | 0.00 | 0.00 | 88 | 1009.3 |
| 20260505173058 | 25 | 150 | 0.0 | 3.2 | 0.00 | 0.00 | 0.00 | 89 | 1009.4 |
| 20260505171559 | 25 | 154 | 0.0 | 0.0 | 0.00 | 0.00 | 0.00 | 88 | 1009.6 |
| 20260505170058 | 25 | 154 | 0.0 | 0.0 | 0.00 | 0.00 | 0.00 | 88 | 1009.4 |
| 20260505164559 | 25 | 154 | 0.0 | 1.6 | 0.00 | 0.00 | 0.00 | 89 | 1009.6 |
| 20260505163054 | 24 | 190 | 0.0 | 1.6 | 0.00 | 0.00 | 0.00 | 89 | 1009.7 |
| 20260505161552 | 24 | 196 | 0.0 | 0.0 | 0.00 | 0.00 | 0.00 | 90 | 1009.6 |
| 20260505153053 | 24 | 154 | 0.0 | 0.0 | 0.00 | 0.00 | 0.00 | 89 | 1009.3 |
| 20260505151550 | 24 | 173 | 0.0 | 0.0 | 0.00 | 0.00 | 0.00 | 89 | 1009.2 |
| 20260505124515 | 22 | 173 | 0.0 | 1.6 | 0.00 | 0.00 | 0.00 | 92 | 1008.4 |
| 20260505123011 | 22 | 151 | 0.0 | 0.0 | 0.00 | 0.00 | 0.00 | 92 | 1008.5 |
| 20260505121508 | 21 | 151 | 0.0 | 0.0 | 0.00 | 0.00 | 0.00 | 92 | 1008.7 |
| 20260505120013 | 21 | 151 | 0.0 | 1.6 | 0.00 | 0.00 | 0.00 | 92 | 1008.5 |
| 20260505114507 | 21 | 159 | 0.0 | 3.2 | 0.00 | 0.00 | 0.00 | 92 | 1008.1 |
| 20260505113006 | 21 | 159 | 0.0 | 0.0 | 0.00 | 0.00 | 0.00 | 92 | 1008.5 |
| 20260505111510 | 21 | 159 | 0.0 | 0.0 | 0.00 | 0.00 | 0.00 | 91 | 1008.4 |